Flag for Germany Past Weather in Frankfurt an der Oder, Brandenburg, Germany — Yesterday and Last 2 Weeks

Now
63 °F

Low clouds.


Feels Like: 63 °F
Forecast: 59 / 78 °F
Wind: 3 mph from Northeast

Location: Gorzow Wlkp

Current Time: Jun 1, 2016 at 7:41:35 AM

Latest Report: Jun 1, 2016 at 7:00 AM


Visibility: 3 mi

Pressure: 29.83 "Hg

Humidity: 94%

Dew Point: 62 °F

Location of Frankfurt an der OderLocation

Past Weather in Frankfurt an der Oder — Graph

°F

Frankfurt an der Oder Temperature Yesterday

Maximum temperature yesterday: 70 °F (at 5:00 PM)
Minimum temperature yesterday: 62 °F (at 3:00 AM)
Average temperature yesterday: 65 °F

High & Low Weather Summary for the Past Weeks

 TemperatureHumidityPressure
High84 °F (May 23, 3:00 PM)97% (May 27, 6:00 AM)30.08 "Hg (May 27, 6:00 AM)
Low43 °F (May 17, 6:00 AM)26% (May 22, 4:00 PM)29.69 "Hg (May 30, 3:00 PM)
Average63 °F68%29.89 "Hg
* Reported May 17 6:00 AM — Jun 1 6:00 AM, Frankfurt an der Oder, Weather by CustomWeather, © 2016

Note: Actual official high and low records may vary slightly from our data, if they occured in-between our weather recording intervals... More about our weather records

Advertising

Frankfurt an der Oder Weather History for the Previous 24 Hours

Scroll right to see more
 ConditionsComfort  
Time TempWeatherWind HumidityBarometerVisibility
6:00 AM
Wed, Jun 1
64 °FSprinkles. Low clouds.2 mph94%29.83 "Hg5 mi
5:00 AM63 °FLow clouds.1 mph95%29.83 "Hg3 mi
4:00 AM63 °FFog.2 mph95%29.84 "Hg4 mi
3:00 AM64 °FOvercast.2 mph95%29.85 "Hg6 mi
2:00 AM64 °FSprinkles. Overcast.2 mph95%29.85 "Hg3 mi
1:00 AM64 °FSprinkles. Overcast.2 mph95%29.85 "Hg4 mi
12:00 AM64 °FOvercast.2 mph92%29.86 "Hg9 mi
11:00 PM
Tue, May 31
65 °FSprinkles. Overcast.2 mph92%29.86 "Hg7 mi
10:00 PM65 °FOvercast.1 mph88%29.87 "Hg12 mi
9:00 PM66 °FOvercast.2 mph85%29.86 "Hg16 mi
8:00 PM67 °FOvercast.3 mph80%29.83 "Hg19 mi
7:00 PM67 °FOvercast.3 mph83%29.84 "Hg16 mi
5:00 PM70 °FThunderstorms. Overcast.1 mph78%29.82 "Hg12 mi
4:00 PM67 °FThundershowers. Overcast.2 mph91%29.83 "Hg6 mi
3:00 PM67 °FThundershowers. Overcast.2 mph88%29.86 "Hg7 mi
2:00 PM69 °FThunderstorms. Partly sunny.1 mph83%29.85 "Hg9 mi
11:00 AM70 °FOvercast.3 mph74%29.84 "Hg9 mi
Weather by CustomWeather, © 2016

See weather overviewHow to use our weather pages